[[{"header":{"parameterUnit":"m.s-1","parameterCategory":1,"la1":30.2991,"la2":30.254,"lo1":-89.0895,"lo2":-89.0444,"dy":0.0017,"dx":0.0017,"nx":28,"ny":28,"refTime":"2023-08-06T09:00:00:Z","depth":0,"parameterNumber":2,"parameterNumberName":"U-component_of_WINDS"},"data":[0,0,0,0,0,0,0,0,0,0,0,0,0,0,0,0,0,0,0,0,0,0,0,0,0,0,0,0,0,0,0,0,0,0,0,0,0,0,0,0,0,0,0,0,0,0,0,0,0,0,0,0,0,0,0,0,0,0,1.287,1.2872,0,1.3055,1.3057,1.3059,1.3092,1.3091,1.3089,1.3088,1.3282,1.3289,1.3295,0,0,0,0,0,0,0,0,0,0,0,0,0,1.255,1.2556,1.287,1.2872,1.2874,1.3055,1.3057,1.306,1.3093,1.3091,1.3089,1.3087,1.328,1.3288,1.3296,0,0,0,0,0,0,0,0,0,0,0,0,0,1.2708,1.2558,1.2869,1.2912,1.2918,1.3054,1.3058,1.3061,1.3093,1.3091,1.3088,1.3086,1.3278,1.3287,1.3297,1.3405,0,0,1.3327,1.3332,0,0,0,0,0,0,0,0,1.2699,1.2719,1.2904,1.291,1.2916,1.3048,1.3016,1.3176,1.3094,1.3027,1.3088,1.3085,1.3207,1.3222,1.3262,1.3414,1.3422,1.3328,1.3334,1.3339,1.3341,0,0,0,0,0,0,0,1.2688,1.2712,1.2943,1.2906,1.2914,1.2924,1.2944,1.3047,1.3128,1.3032,1.3035,1.3056,1.321,1.3253,1.3267,1.3425,1.3328,1.3337,1.3343,1.3347,1.368,1.3682,0,0,0,0,0,0,1.2668,1.2702,1.2937,1.2949,1.2799,1.2932,1.2954,1.3008,1.3127,1.3142,1.3058,1.3057,1.3237,1.3255,1.3274,1.3411,1.3338,1.3348,1.3354,1.3677,1.368,1.3683,0,0,0,0,0,0,1.2661,1.2689,1.293,1.2827,1.2858,1.294,1.3001,1.3013,1.3056,1.3146,1.3161,1.3087,1.3236,1.326,1.3373,1.3418,1.3352,1.3361,1.3673,1.3678,1.3682,1.3685,0,0,0,0,0,0,1.2652,1.2686,1.2727,1.2827,1.2863,1.3024,1.3003,1.3018,1.3073,1.3073,1.3177,1.3192,1.3236,1.3358,1.3383,1.3431,1.3369,1.367,1.3675,1.368,1.3681,1.3689,1.3695,0,0,0,0,0,1.2641,1.272,1.2728,1.2757,1.2915,1.3026,1.3047,1.3094,1.3076,1.3119,1.3177,1.3189,1.3409,1.3369,1.3397,1.3449,1.3667,1.3674,1.368,1.3678,1.3687,1.3695,0,0,0,0,0,0,1.2624,1.2734,1.2744,1.2858,1.2933,1.3031,1.3086,1.3102,1.3184,1.3181,1.3238,1.3261,1.3372,1.3422,1.3375,1.3562,1.3537,1.3549,1.3526,1.3535,1.3542,1.3529,1.3377,0,0,0,0,0,1.2633,1.2712,1.2805,1.2897,1.2933,1.3003,1.3053,1.3084,1.3163,1.3195,1.3262,1.334,1.3428,1.3484,1.3569,1.3688,1.3713,1.3738,1.3745,1.375,1.3761,1.3832,1.3845,1.3705,1.3705,1.3704,0,0,1.2653,1.2724,1.277,1.2895,1.2956,1.304,1.303,1.3117,1.3181,1.3209,1.332,1.3372,1.3463,1.3581,1.3636,1.3626,1.3805,1.3758,1.3762,1.377,1.384,1.3853,1.3864,1.3709,1.3708,1.3707,0,0,1.2734,1.2793,1.2878,1.294,1.3032,1.3078,1.3099,1.3196,1.3231,1.3343,1.3367,1.3444,1.3592,1.3658,1.371,1.3818,1.3834,1.3844,1.3882,1.395,1.3961,1.3971,1.4013,1.4027,1.3854,1.3854,1.3854,0,1.2748,1.2873,1.292,1.3008,1.3064,1.3092,1.318,1.3238,1.3354,1.3393,1.338,1.3568,1.3632,1.3766,1.3793,1.3833,1.3861,1.3833,1.3955,1.3966,1.3976,1.4017,1.4032,1.3855,1.3855,1.3855,1.3855,0,1.2888,1.2974,1.3032,1.3143,1.3205,1.3292,1.3355,1.3412,1.3438,1.3486,1.3602,1.3679,1.3782,1.3816,1.3841,1.3955,1.3947,1.3943,1.392,1.399,1.4029,1.4045,1.3857,1.3856,1.3856,1.3856,0,0,1.2962,1.3099,1.312,1.3172,1.3277,1.3346,1.3436,1.3536,1.3586,1.3665,1.3744,1.387,1.3869,1.3928,1.3962,1.4021,1.4106,1.4012,1.4015,1.4029,1.4241,1.4244,1.4261,1.4116,1.4119,1.4121,1.4234,0,1.3058,1.3218,1.3264,1.34,1.3483,1.3512,1.3591,1.3666,1.3714,1.3793,1.3847,1.3936,1.3926,1.3963,1.4022,1.4083,1.415,1.4075,1.4193,1.4197,1.4172,1.4281,1.4285,1.4387,1.4249,1.4252,1.4254,0,1.319,1.3272,1.3416,1.3513,1.355,1.362,1.3717,1.379,1.3877,1.3908,1.3976,1.4004,1.4102,1.4072,1.421,1.4158,1.4209,1.4246,1.4252,1.4267,1.4231,1.4302,1.4421,1.4437,1.4278,1.4276,1.4274,0,1.3234,1.338,1.3486,1.353,1.3645,1.3694,1.3745,1.3829,1.3887,1.3972,1.4011,1.4106,1.4159,1.4233,1.4288,1.426,1.4423,1.4396,1.4455,1.4453,1.4489,1.4487,1.4621,1.4517,1.4517,1.4517,1.4516,0,1.3337,1.3425,1.3508,1.3574,1.3674,1.3727,1.3826,1.3878,1.3953,1.4031,1.4062,1.4136,1.4202,1.4285,1.4329,1.4439,1.4461,1.4492,1.4503,1.4491,1.4487,1.4527,1.4522,1.4521,1.452,1.4519,1.4518,0,1.3404,1.3463,1.3581,1.3681,1.3708,1.3778,1.3865,1.3931,1.3981,1.408,1.4106,1.4185,1.4284,1.4346,1.4472,1.4502,1.4623,1.463,1.4594,1.46,1.4656,1.4651,1.4823,1.4849,1.4725,1.4726,1.4727,0,1.3467,1.3535,1.3643,1.3697,1.3748,1.3835,1.3895,1.395,1.4012,1.4117,1.4171,1.4272,1.4356,1.4514,1.4584,1.4682,1.4694,1.4747,1.4709,1.4695,1.4698,1.4695,1.4704,1.4754,1.4755,1.4756,1.4757,0,1.3574,1.36,1.3684,1.3779,1.3849,1.3927,1.4005,1.4048,1.4118,1.4185,1.4287,1.4352,1.4481,1.4583,1.4687,1.4742,1.4763,1.4768,1.4787,1.4777,1.4754,1.4771,1.4615,1.4764,1.4763,1.4763,1.4762,1.4762,1.3643,1.3707,1.3793,1.3887,1.3951,1.4024,1.4092,1.415,1.4235,1.4345,1.4373,1.448,1.4568,1.471,1.4767,1.4854,1.4846,1.4873,1.4881,1.4887,1.489,1.4738,1.4872,1.4872,1.4872,1.4872,1.4872,0,1.3754,1.3812,1.3897,1.4005,1.408,1.409,1.4178,1.424,1.4334,1.4413,1.4496,1.4615,1.4714,1.4792,1.4894,1.4949,1.4961,1.4974,1.4973,1.4986,1.4889,1.4864,1.4963,1.4963,1.4963,1.4963,1.4963,1.4963,1.3821,1.3931,1.3967,1.411,1.4168,1.4273,1.4322,1.439,1.4455,1.4585,1.4668,1.4717,1.4798,1.4907,1.4999,1.502,1.5058,1.507,1.5092,1.5002,1.4992,1.4982,1.4959,1.5076,1.5077,1.5182,1.5183,1.5184]},{"header":{"parameterUnit":"m.s-1","parameterCategory":1,"la1":30.2991,"la2":30.254,"lo1":-89.0895,"lo2":-89.0444,"dy":0.0017,"dx":0.0017,"nx":28,"ny":28,"refTime":"2023-08-06T09:00:00:Z","depth":0,"parameterNumber":3,"parameterNumberName":"V-component_of_WINDS"},"data":[0,0,0,0,0,0,0,0,0,0,0,0,0,0,0,0,0,0,0,0,0,0,0,0,0,0,0,0,0,0,0,0,0,0,0,0,0,0,0,0,0,0,0,0,0,0,0,0,0,0,0,0,0,0,0,0,0,0,5.671,5.6712,0,5.6915,5.6918,5.692,5.6921,5.6918,5.6916,5.6913,5.7115,5.7122,5.713,0,0,0,0,0,0,0,0,0,0,0,0,0,5.6309,5.6316,5.6709,5.6712,5.6715,5.6915,5.6918,5.6921,5.6921,5.6918,5.6915,5.6912,5.7112,5.7121,5.7131,0,0,0,0,0,0,0,0,0,0,0,0,0,5.6495,5.6319,5.6709,5.6739,5.6744,5.6914,5.6918,5.6921,5.6922,5.6918,5.6914,5.691,5.7109,5.712,5.7132,5.7283,0,0,5.7168,5.7173,0,0,0,0,0,0,0,0,5.6485,5.651,5.6732,5.6738,5.6743,5.6889,5.6851,5.7042,5.6923,5.6854,5.6913,5.6908,5.7042,5.7059,5.7106,5.7292,5.7301,5.7169,5.7176,5.7181,5.7184,0,0,0,0,0,0,0,5.6472,5.6501,5.6791,5.6735,5.6742,5.674,5.6762,5.6887,5.6967,5.686,5.686,5.6885,5.7044,5.7095,5.7111,5.7304,5.7168,5.7179,5.7186,5.7191,5.7626,5.763,0,0,0,0,0,0,5.6454,5.6491,5.6784,5.6797,5.6602,5.675,5.6775,5.6846,5.6966,5.6981,5.6888,5.6885,5.7077,5.7097,5.7118,5.7304,5.7181,5.7192,5.7199,5.7621,5.7627,5.7631,0,0,0,0,0,0,5.6446,5.648,5.6776,5.6644,5.6682,5.6762,5.6841,5.6852,5.6903,5.6988,5.7001,5.6926,5.7074,5.7101,5.7243,5.7311,5.7197,5.7208,5.7616,5.7623,5.7629,5.7677,0,0,0,0,0,0,5.6434,5.6477,5.6537,5.6646,5.6689,5.69,5.6845,5.6859,5.6924,5.6921,5.7026,5.704,5.7073,5.7225,5.7254,5.7325,5.7217,5.761,5.7619,5.7627,5.767,5.7685,5.7697,0,0,0,0,0,5.642,5.654,5.654,5.6576,5.6766,5.6904,5.6928,5.6967,5.6929,5.6989,5.7044,5.7037,5.7298,5.724,5.7273,5.7348,5.7606,5.7616,5.7626,5.7663,5.7682,5.7697,0,0,0,0,0,0,5.6435,5.6555,5.6556,5.6716,5.6801,5.6904,5.6981,5.6985,5.7079,5.7072,5.7112,5.7136,5.7278,5.7326,5.7259,5.7501,5.7447,5.7464,5.7464,5.7482,5.7496,5.7482,5.7227,0,0,0,0,0,5.6457,5.6562,5.666,5.6791,5.6834,5.69,5.6962,5.6985,5.7072,5.7107,5.7172,5.7254,5.7356,5.7421,5.7518,5.7676,5.7699,5.7744,5.7757,5.7768,5.7783,5.7871,5.7892,5.7665,5.7665,5.7665,0,0,5.6503,5.6582,5.6645,5.6797,5.6865,5.6971,5.693,5.7043,5.7122,5.7123,5.7262,5.7313,5.7407,5.7558,5.7627,5.7603,5.7851,5.7781,5.7789,5.7799,5.7884,5.7905,5.7924,5.7672,5.7671,5.7669,0,0,5.6643,5.6713,5.6831,5.6901,5.7005,5.7049,5.7077,5.7181,5.7216,5.7357,5.736,5.7452,5.7625,5.7693,5.775,5.7916,5.7913,5.7946,5.8019,5.8104,5.8122,5.8138,5.8199,5.822,5.796,5.7961,5.7961,0,5.6687,5.685,5.689,5.7006,5.7072,5.7081,5.72,5.7264,5.7394,5.7438,5.7409,5.7628,5.7692,5.786,5.7901,5.7946,5.7979,5.7935,5.8117,5.8133,5.8149,5.8207,5.823,5.7964,5.7964,5.7963,5.7963,0,5.6899,5.7011,5.7094,5.7223,5.7298,5.7414,5.7471,5.7541,5.7557,5.7603,5.7746,5.7823,5.7938,5.7978,5.7993,5.8149,5.813,5.8109,5.8056,5.8174,5.8229,5.8252,5.7969,5.7968,5.7967,5.7966,0,0,5.7054,5.7206,5.7236,5.7296,5.7412,5.7498,5.7614,5.7729,5.7789,5.7877,5.7975,5.8122,5.8104,5.8168,5.819,5.8265,5.8394,5.8235,5.8237,5.8263,5.857,5.8588,5.8613,5.8391,5.8396,5.8399,5.8563,0,5.7207,5.7418,5.7459,5.764,5.7745,5.7755,5.7856,5.7936,5.7982,5.8075,5.8123,5.8228,5.8195,5.8234,5.8308,5.8362,5.8456,5.8351,5.8482,5.8486,5.846,5.8642,5.866,5.8811,5.8585,5.8588,5.8591,0,5.7415,5.7514,5.7707,5.7811,5.7856,5.7947,5.8056,5.8145,5.8236,5.8264,5.8338,5.8352,5.847,5.8411,5.8575,5.8502,5.8558,5.8592,5.8599,5.8614,5.8547,5.8663,5.886,5.8883,5.8625,5.8622,5.862,0,5.7512,5.7691,5.7832,5.7881,5.8006,5.8069,5.8123,5.8211,5.8278,5.8372,5.8415,5.852,5.8578,5.8658,5.8699,5.8652,5.886,5.8804,5.8886,5.8885,5.8931,5.8928,5.9141,5.8963,5.8963,5.8962,5.8962,0,5.768,5.7799,5.7877,5.7963,5.8096,5.8139,5.8268,5.832,5.8399,5.8493,5.8505,5.8593,5.8642,5.8737,5.8769,5.89,5.8925,5.895,5.8958,5.8951,5.8948,5.8989,5.898,5.8969,5.8967,5.8966,5.8965,0,5.7811,5.7869,5.8022,5.8128,5.8157,5.825,5.8339,5.8422,5.8467,5.8587,5.8617,5.8688,5.88,5.8849,5.8985,5.9007,5.9157,5.9156,5.9128,5.9131,5.9211,5.9204,5.946,5.9496,5.9292,5.9294,5.9296,0,5.7916,5.8009,5.8125,5.8192,5.8249,5.8354,5.8424,5.8469,5.854,5.8652,5.8721,5.8834,5.8927,5.9105,5.9166,5.9271,5.9273,5.9356,5.9289,5.9279,5.9277,5.9272,5.9282,5.9368,5.937,5.9372,5.9373,0,5.8097,5.8122,5.8223,5.8335,5.8419,5.8508,5.8595,5.8648,5.8706,5.8785,5.8902,5.8975,5.9116,5.9228,5.9336,5.9388,5.9391,5.9394,5.9419,5.9413,5.9395,5.9408,5.9164,5.9388,5.9387,5.9386,5.9385,5.9384,5.822,5.8303,5.8399,5.8512,5.8583,5.8665,5.8749,5.8806,5.8905,5.9027,5.9046,5.917,5.9258,5.9405,5.9461,5.9558,5.9537,5.9572,5.9582,5.9591,5.9597,5.9378,5.9577,5.9577,5.9576,5.9576,5.9576,0,5.8404,5.8466,5.857,5.8694,5.8782,5.8779,5.8876,5.8949,5.906,5.9143,5.9236,5.937,5.9478,5.9549,5.9658,5.9721,5.9725,5.9748,5.9745,5.9757,5.9608,5.9577,5.9744,5.9744,5.9744,5.9744,5.9744,5.9744,5.851,5.8651,5.8687,5.8862,5.8923,5.9049,5.9104,5.9179,5.9246,5.9396,5.9488,5.9534,5.9612,5.9728,5.9826,5.9844,5.9884,5.9909,5.9926,5.9785,5.9768,5.9751,5.9722,5.9917,5.9917,6.0068,6.0069,6.007]}]]